Location: Recife
(8.0585°S, 34.8848°W)
Time: 10:31:39
(UTC-03:00)

SR - Pass Details

Date: 14 April 2026
Orbit: 568 x 852 km, 66.7° (Epoch: 12 May)

Event Time Altitude Azimuth Distance (km) Brightness Sun altitude
Rises 00:30:36 0° 348° (NNW) 3,398 - -72.5°
Reaches altitude 10° 00:33:06 10° 351° (N) 2,464 - -71.9°
Maximum altitude 00:38:45 60° 71° (ENE) 950 - -70.5°
Drops below altitude 10° 00:44:13 10° 150° (SSE) 2,389 - -69.1°
Sets 00:46:36 0° 153° (SSE) 3,287 - -68.5°
